Kalamata, Greece

11:18 AM EET on February 14, 2016 (GMT +0200)
Kalamata Air Base

Weather History for LGKL - December, 2012

Change the Weather History Date:

Friday, December 14, 2012

  Actual Average Record
Temperature  
Mean Temperature 48 °F -  
Max Temperature 60 °F 61 °F 68 °F (2011)
Min Temperature 37 °F 44 °F 37 °F (2012)
Degree Days  
Heating Degree Days 16    
Moisture  
Dew Point 40 °F    
Average Humidity 70    
Maximum Humidity 87    
Minimum Humidity 48    
Precipitation  
Precipitation 0.00 in 0.18 in - ()
Sea Level Pressure  
Sea Level Pressure 30.29 in    
Wind  
Wind Speed 3 mph ()    
Max Wind Speed 7 mph    
Max Gust Speed -    
Visibility 6.2 miles    
Events      
Averages and records for this station are not official NWS values.
T = Trace of Precipitation, MM = Missing Value Source: Averaged Metar Reports

Daily Weather History Graph

Daily Weather History Graph

Search for Another Location

Airport or City:

Trip Planner

Search our weather history database for the weather conditions in past years. The results will help you decide how hot, cold, wet, or windy it might be!

Date:

Astronomy

Dec. 14, 2012 Rise Set
Actual Time 7:37 AM EET 5:15 PM EET
Civil Twilight 7:08 AM EET 5:44 PM EET
Nautical Twilight 6:35 AM EET 6:17 PM EET
Astronomical Twilight 6:04 AM EET 6:49 PM EET
Moon 8:26 AM EET 6:45 PM EET
Length of Visible Light 10h 36m
Length of Day
9h 38m
New Moon, 2% of the Moon is Illuminated
Dec 14
New Moon
Dec 20
First Quarter
Dec 28
Full
Jan 5
Last Quarter
Jan 11
New

Hourly Weather History & Observations

Time (EET) Temp. Windchill Dew Point Humidity Pressure Visibility Wind Dir Wind Speed Gust Speed Precip Events Conditions
1:50 AM 39.2 °F 35.9 °F 33.8 °F 81% 30.30 in 6.2 mi NNW 4.6 mph - N/A   Scattered Clouds
4:50 AM 39.2 °F 35.0 °F 35.6 °F 87% 30.30 in - NW 5.8 mph - N/A   Clear
5:20 AM 39.2 °F 35.9 °F 33.8 °F 81% 30.30 in - NNW 4.6 mph - N/A   Clear
5:50 AM 37.4 °F 33.8 °F 33.8 °F 87% 30.27 in - NNW 4.6 mph - N/A   Clear
6:20 AM 39.2 °F 35.9 °F 33.8 °F 81% 30.27 in - WNW 4.6 mph - N/A   Clear
6:50 AM 39.2 °F 35.9 °F 33.8 °F 81% 30.27 in - NW 4.6 mph - N/A   Clear
7:20 AM 39.2 °F 35.9 °F 33.8 °F 81% 30.27 in 6.2 mi NNW 4.6 mph - N/A   Scattered Clouds
7:50 AM 39.2 °F 35.9 °F 33.8 °F 81% 30.30 in 6.2 mi NNW 4.6 mph - N/A   Scattered Clouds
8:20 AM 41.0 °F 37.1 °F 35.6 °F 81% 30.30 in 6.2 mi NNW 5.8 mph - N/A   Scattered Clouds
8:50 AM 42.8 °F 39.3 °F 37.4 °F 81% 30.30 in 6.2 mi NNW 5.8 mph - N/A   Scattered Clouds
9:20 AM 46.4 °F 43.5 °F 37.4 °F 71% 30.30 in 6.2 mi NNW 5.8 mph - N/A   Scattered Clouds
9:50 AM 48.2 °F - 39.2 °F 71% 30.30 in 6.2 mi North 4.6 mph - N/A   Scattered Clouds
10:20 AM 51.8 °F - 39.2 °F 62% 30.33 in 6.2 mi Calm Calm - N/A   Scattered Clouds
10:50 AM 53.6 °F - 39.2 °F 58% 30.33 in 6.2 mi North 6.9 mph - N/A   Scattered Clouds
11:20 AM 57.2 °F - 39.2 °F 51% 30.30 in 6.2 mi Calm Calm - N/A   Scattered Clouds
12:20 PM 59.0 °F - 41.0 °F 51% 30.30 in 6.2 mi Calm Calm - N/A   Scattered Clouds
12:50 PM 60.8 °F - 41.0 °F 48% 30.30 in 6.2 mi Calm Calm - N/A   Scattered Clouds
1:20 PM 60.8 °F - 41.0 °F 48% 30.27 in 6.2 mi SSW 5.8 mph - N/A   Scattered Clouds
1:50 PM 59.0 °F - 41.0 °F 51% 30.27 in 6.2 mi SSW 4.6 mph - N/A   Scattered Clouds
2:20 PM 59.0 °F - 41.0 °F 51% 30.27 in 6.2 mi Calm Calm - N/A   Scattered Clouds
2:50 PM 59.0 °F - 42.8 °F 55% 30.27 in 6.2 mi Calm Calm - N/A   Scattered Clouds
3:20 PM 59.0 °F - 42.8 °F 55% 30.27 in 6.2 mi Calm Calm - N/A   Scattered Clouds
3:50 PM 57.2 °F - 42.8 °F 59% 30.27 in 6.2 mi Calm Calm - N/A   Scattered Clouds
4:20 PM 55.4 °F - 42.8 °F 63% 30.27 in 6.2 mi Calm Calm - N/A   Scattered Clouds
4:50 PM 53.6 °F - 42.8 °F 67% 30.30 in 6.2 mi Calm Calm - N/A   Scattered Clouds
5:20 PM 51.8 °F - 44.6 °F 76% 30.30 in 6.2 mi Calm Calm - N/A   Mostly Cloudy
5:50 PM 51.8 °F - 44.6 °F 76% 30.30 in 6.2 mi Calm Calm - N/A   Mostly Cloudy
6:20 PM 50.0 °F - 46.4 °F 87% 30.30 in 6.2 mi Calm Calm - N/A   Mostly Cloudy
6:50 PM 50.0 °F - 46.4 °F 87% 30.30 in 6.2 mi Calm Calm - N/A   Mostly Cloudy
7:50 PM 50.0 °F - 46.4 °F 87% 30.30 in 6.2 mi Calm Calm - N/A   Mostly Cloudy